Wind_Speed
21 21 21 19 16 14 12 10 9 9 8 8 7 7 7 7 7 8 8 9 10 10 11 11 11 10 9 8 8 7 7 8 10 10 8 7 5 4 4 5 5 5 6 6 5 5 6 6 6 5 5 6 7 8 8 9 10 10 11 11 12 13
20 20 21 19 17 14 12 11 10 9 9 9 8 8 8 8 9 9 8 9 11 11 12 12 12 11 10 9 8 7 6 6 8 9 9 7 6 5 5 5 5 5 5 5 5 5 5 6 6 6 6 6 7 8 9 10 11 12 13 13 14 15
17 18 19 19 17 15 13 12 11 11 10 10 9 9 9 10 10 9 9 10 11 12 13 13 13 13 12 11 9 8 7 6 6 7 8 8 6 5 5 5 5 5 5 5 5 5 5 5 6 6 7 7 8 9 10 12 13 14 15 16 16 17
14 15 17 18 17 15 14 14 14 13 13 12 10 10 10 11 11 11 10 10 11 12 13 14 14 14 13 12 11 10 8 7 6 6 7 8 8 6 5 5 5 5 5 5 5 5 5 6 6 7 8 9 10 10 11 12 13 15 16 17 18 18
10 13 15 17 16 15 14 14 14 15 15 14 12 10 11 12 12 12 11 10 11 12 13 14 14 14 14 13 13 11 10 9 8 7 7 8 8 7 6 5 5 6 6 6 5 5 6 7 8 9 10 10 11 11 12 13 14 15 16 18 19 20
9 13 15 16 15 14 13 14 14 15 16 15 13 11 11 12 12 13 12 11 11 12 13 13 14 14 14 14 14 13 12 11 10 9 8 8 9 8 7 6 6 6 6 5 6 6 7 8 9 10 11 11 12 12 13 14 15 16 17 19 20 21
9 13 15 15 14 13 12 13 13 15 15 15 14 13 12 12 12 13 13 12 12 13 13 14 14 14 14 14 14 14 13 12 11 11 11 10 9 9 8 7 7 7 7 6 6 7 8 9 10 11 12 12 13 14 14 15 16 17 19 20 21 22
11 14 15 15 14 12 12 12 12 13 13 14 15 14 13 12 12 13 13 13 13 14 14 15 15 16 16 16 15 15 14 13 13 12 12 12 10 10 10 9 9 9 8 8 8 8 9 10 11 12 13 14 14 15 16 16 17 18 20 21 22 22
13 14 16 16 15 13 13 13 13 12 12 14 15 14 13 12 13 13 14 14 14 15 15 15 16 17 17 18 17 17 16 15 15 14 14 13 12 11 11 11 11 10 10 10 10 10 11 12 13 13 14 15 16 16 17 17 19 20 21 22 23 23
16 15 16 17 17 16 15 15 14 12 12 14 14 14 13 13 13 14 15 15 15 16 16 16 17 18 18 19 19 19 18 17 17 16 16 15 14 12 12 12 12 11 11 11 11 12 13 14 15 15 16 16 17 17 18 19 20 21 22 23 24 24
18 16 17 18 18 17 17 16 14 13 13 15 15 15 14 14 14 14 15 16 17 17 17 17 18 18 18 18 18 19 20 20 19 18 17 16 15 14 13 13 12 12 12 12 13 14 14 15 16 17 17 18 18 19 19 20 21 22 23 24 25 25
20 18 17 17 18 18 18 17 15 13 13 15 15 16 16 15 15 15 16 17 18 18 18 18 17 17 18 18 17 17 18 20 20 19 18 17 16 16 14 13 13 12 13 13 14 15 15 17 18 18 19 19 19 20 21 21 22 23 24 25 25 25
21 19 18 18 18 19 19 17 14 13 13 15 16 18 18 17 16 16 16 17 18 19 19 18 17 17 17 17 16 15 16 18 19 19 18 17 17 16 15 14 13 13 13 14 14 15 16 17 19 19 19 19 20 21 22 23 23 24 25 25 25 25
22 20 19 19 19 20 19 17 15 15 16 18 19 19 19 18 18 17 17 18 19 20 19 19 18 17 16 14 14 14 15 17 19 19 18 18 17 16 15 14 14 13 14 14 14 15 16 18 19 20 20 20 21 22 23 24 25 25 25 25 26 26
22 21 21 21 21 21 19 17 16 17 18 18 19 19 19 19 19 19 18 18 19 19 19 19 18 16 15 14 13 13 15 17 19 19 18 18 17 16 14 14 13 14 14 14 14 16 17 19 20 20 20 21 22 23 24 25 25 25 26 26 26 27
23 23 23 22 22 21 19 17 16 17 17 17 18 19 19 19 19 19 18 18 19 19 20 19 18 17 15 15 14 14 14 17 19 19 18 17 16 14 14 13 13 14 14 15 15 16 18 19 19 20 21 22 24 24 25 25 25 26 26 27 27 28
24 25 24 23 22 20 18 17 17 17 17 18 19 20 19 18 18 18 18 18 19 20 20 19 18 17 16 16 15 14 14 16 18 18 17 16 14 13 13 13 13 14 15 15 16 17 18 18 19 21 22 24 25 25 25 26 26 27 27 28 28 28
23 24 23 23 21 20 18 18 18 18 19 20 21 21 20 19 19 19 19 19 19 20 20 19 18 17 17 16 15 14 14 16 17 16 16 15 14 13 13 13 14 14 15 16 17 17 18 18 20 22 23 25 25 26 26 27 28 28 29 29 29 29
22 22 21 20 19 18 18 18 18 18 19 20 21 21 20 20 20 20 20 20 20 20 20 19 18 17 17 16 14 13 14 15 15 15 14 14 13 13 13 13 14 15 16 17 17 17 18 20 21 23 24 25 26 27 28 28 29 30 30 30 30 30
22 20 18 18 18 18 17 16 17 18 19 20 21 21 20 20 20 21 21 21 20 19 19 18 18 17 17 16 15 14 14 14 14 14 14 13 13 14 13 14 14 16 17 17 18 19 20 22 23 24 25 26 27 28 29 29 30 30 30 30 30 30
21 19 18 18 17 17 16 16 18 19 20 21 21 21 20 19 20 21 22 21 19 19 18 18 18 17 17 16 16 16 15 15 15 15 14 14 13 13 13 14 15 16 17 18 19 21 22 24 25 26 27 28 29 30 30 30 31 31 31 31 31 30
21 20 20 18 17 17 16 16 18 19 20 21 20 20 20 20 20 21 21 20 19 19 19 18 17 17 16 16 16 17 16 15 15 15 14 13 13 13 13 14 15 16 18 19 21 22 24 26 27 27 28 29 30 31 31 31 31 32 31 31 31 30
22 22 21 19 19 17 15 15 17 19 19 19 20 21 21 22 21 21 20 19 18 19 19 19 17 16 15 16 17 17 16 16 15 14 13 12 12 13 14 14 15 17 18 20 23 24 25 26 27 28 29 30 31 32 32 32 32 32 31 31 30 30
22 21 19 18 18 16 16 16 17 18 19 19 20 21 22 23 22 21 20 19 19 20 20 19 18 16 16 17 17 16 15 15 14 13 12 12 13 13 14 14 16 17 19 21 23 25 26 27 28 29 30 31 32 33 33 33 33 32 32 31 31 30
20 20 18 16 16 17 18 18 18 19 19 19 19 20 22 21 19 19 20 20 20 19 18 17 16 17 17 17 16 15 15 14 13 12 12 12 13 13 14 15 16 18 20 22 23 25 26 28 29 30 31 32 33 34 35 34 33 33 32 32 31 31
21 21 18 16 17 19 20 20 20 20 20 20 18 19 21 19 17 18 20 19 19 18 16 15 15 17 18 16 15 15 14 13 12 12 12 13 13 13 14 16 18 19 21 22 23 25 26 27 28 29 30 32 33 34 35 35 34 33 32 32 32 31
23 22 18 17 18 20 20 20 21 21 21 20 19 20 21 20 18 18 19 18 17 17 15 15 16 16 16 15 15 14 13 13 12 12 12 13 14 15 16 18 19 20 21 22 24 25 26 27 28 29 30 31 32 33 34 34 34 34 33 33 32 31
22 19 17 17 20 20 19 20 21 22 22 21 20 21 22 22 21 20 20 18 17 16 16 16 17 16 15 14 14 13 12 12 11 11 13 14 15 16 18 19 20 21 22 23 24 24 25 26 27 29 30 31 31 32 33 33 33 33 34 34 33 32
17 16 15 17 18 17 18 19 20 21 21 21 21 22 21 19 19 18 17 17 17 17 17 17 17 15 14 13 13 12 11 10 11 12 14 15 16 18 19 20 21 22 22 23 24 24 25 26 27 28 29 29 30 30 31 31 32 32 32 32 32 33
16 16 16 18 18 16 17 18 19 19 20 22 23 21 17 15 16 15 14 16 16 16 17 17 16 15 13 12 11 10 9 10 11 13 14 16 17 18 19 20 21 22 23 23 24 25 26 27 27 28 28 28 29 29 29 30 31 31 31 32 33 34
17 17 18 19 19 17 17 19 18 18 19 21 21 19 17 17 16 14 14 16 17 17 18 18 17 14 13 11 10 10 10 11 12 13 14 16 17 19 20 21 21 22 23 24 25 25 26 26 27 27 27 27 28 29 30 30 31 31 32 32 33 34
17 17 18 19 19 17 18 19 18 19 20 19 19 20 19 18 15 14 15 16 17 18 18 17 15 13 12 11 10 10 10 11 12 13 15 16 17 19 20 21 22 23 23 24 25 25 26 26 26 26 27 27 28 30 30 31 31 31 31 32 33 35
17 18 18 18 17 17 18 19 19 19 19 19 19 19 18 17 16 16 16 16 17 18 17 15 14 13 12 11 10 10 10 10 12 13 15 16 18 19 20 21 22 23 23 24 25 25 26 26 26 26 27 28 29 30 30 30 30 30 30 32 34 36
16 17 17 16 17 17 18 20 20 18 18 19 19 16 16 16 16 15 16 17 17 17 15 14 13 13 12 11 10 9 9 11 12 14 15 16 18 19 20 21 22 23 24 24 25 26 26 26 27 27 28 29 29 29 29 29 29 29 30 32 34 37
17 17 16 16 17 18 19 19 17 17 19 19 17 15 16 17 16 17 18 17 16 15 14 14 14 14 12 10 9 9 10 11 12 14 15 16 18 19 20 21 22 23 24 25 26 26 26 27 27 28 28 28 28 28 28 28 29 29 31 33 35 37
18 16 16 17 16 17 17 16 15 17 20 19 16 16 17 17 18 18 17 15 14 14 15 15 15 13 10 9 9 9 10 11 13 14 15 17 18 19 21 22 23 24 25 26 26 26 27 27 28 28 28 28 28 28 28 29 29 30 32 34 36 38
18 15 16 18 15 15 16 15 15 17 18 18 17 17 17 17 17 16 15 15 15 15 15 15 14 11 10 9 9 10 10 12 13 14 16 17 19 20 21 22 24 25 26 27 27 27 28 28 28 28 28 28 29 29 29 29 30 32 33 35 36 39
Wind_Direction
290 295 295 293 292 290 287 285 284 283 281 278 278 273 267 269 274 279 287 291 292 293 294 295 295 294 294 297 307 318 330 334 334 334 331 324 320 306 287 277 276 276 272 273 279 289 296 300 303 308 316 326 334 336 337 338 339 338 337 337 335 333
284 292 295 295 292 288 285 282 281 279 276 272 271 265 262 265 271 277 283 286 289 290 291 291 291 289 288 289 295 301 311 321 325 328 324 314 310 299 281 271 269 270 268 269 277 288 295 300 303 309 314 320 325 328 329 330 332 332 331 330 328 325
275 287 294 293 288 283 283 284 284 282 278 274 269 264 263 265 271 276 280 284 288 291 292 292 291 289 286 284 285 288 294 300 308 316 316 306 298 290 279 270 265 265 266 270 277 282 289 293 299 306 313 318 323 326 327 328 328 327 324 323 321 319
266 282 287 284 279 279 281 284 284 284 281 278 274 268 266 269 273 277 280 284 289 293 293 293 292 290 287 283 280 280 281 284 287 297 304 300 292 283 272 263 260 258 259 264 268 274 283 294 303 312 317 320 325 327 326 323 321 318 316 314 313 312
268 278 279 276 275 278 279 282 283 282 281 279 277 271 268 272 276 280 283 287 290 290 289 288 288 287 286 282 278 275 274 275 276 280 289 293 290 283 268 255 253 254 256 261 269 283 298 309 315 317 319 319 320 319 316 313 310 308 307 307 307 307
269 273 274 274 276 279 279 280 281 280 279 277 275 269 267 270 276 281 286 289 288 284 282 281 281 281 280 278 275 272 270 269 272 276 280 284 286 284 275 265 262 264 268 275 287 300 308 313 314 313 312 310 308 306 304 304 303 303 302 303 303 302
268 270 272 273 277 283 283 282 280 279 277 273 269 266 266 270 276 283 287 289 287 282 279 277 275 273 271 270 270 269 267 266 268 274 278 281 283 284 282 280 283 284 284 288 294 299 302 304 304 303 301 298 297 297 298 299 299 300 299 299 300 301
273 267 270 273 277 280 284 284 282 280 275 269 265 265 267 270 277 283 286 286 286 283 278 275 272 269 267 266 265 265 266 265 264 267 272 276 279 281 282 284 289 290 290 292 294 295 296 296 295 293 292 292 292 293 295 296 297 297 297 297 298 299
273 265 269 272 272 272 277 282 282 279 273 267 264 265 267 270 277 282 285 286 286 282 276 273 271 270 270 270 269 268 265 261 260 259 262 266 270 273 275 280 285 287 290 291 292 293 292 291 290 289 287 288 289 291 293 295 295 295 295 295 296 298
273 265 266 268 268 268 271 275 277 275 270 267 266 266 267 271 277 282 286 287 284 280 275 272 271 272 274 274 272 269 263 256 254 254 254 259 263 266 268 273 280 284 287 289 291 292 291 290 288 288 287 288 290 292 294 294 293 293 294 296 298 299
270 265 264 264 263 264 268 270 271 269 265 265 267 269 270 273 278 283 286 285 282 279 276 273 272 275 275 274 271 267 261 254 250 249 250 254 260 263 265 269 275 279 281 284 289 291 290 288 287 288 289 290 292 293 293 293 294 295 297 299 300 301
265 263 260 258 257 261 265 266 265 263 261 262 265 272 276 278 279 282 283 283 281 280 277 275 273 272 271 271 271 269 261 250 245 245 248 253 259 263 266 267 270 272 276 282 287 289 287 286 286 287 288 289 291 292 293 294 296 298 299 300 301 301
258 257 252 250 253 258 262 263 259 253 253 257 265 274 277 277 277 278 280 281 280 279 278 276 273 269 268 270 272 272 261 246 240 243 248 252 258 263 265 266 267 270 276 281 284 284 283 283 283 285 287 289 291 292 294 297 298 299 300 301 301 301
250 247 245 247 250 255 259 258 252 249 252 259 266 271 271 271 273 275 277 278 278 278 278 276 272 269 267 269 271 271 260 245 239 243 248 252 258 262 264 265 268 272 276 278 280 282 283 284 285 287 290 292 294 295 297 299 299 300 301 301 302 302
244 242 243 245 248 252 256 254 250 249 253 259 264 265 265 268 271 274 275 276 276 276 275 273 271 268 267 268 270 269 260 245 240 243 248 253 258 261 264 266 270 273 277 279 283 286 287 287 290 292 294 295 295 297 298 299 299 301 301 302 302 302
241 240 241 245 249 251 253 252 249 249 252 257 260 261 263 267 270 272 273 273 273 273 272 270 268 268 269 270 270 268 259 246 240 243 249 254 258 261 264 266 270 274 279 284 287 289 290 290 292 293 294 295 295 296 297 299 300 301 301 302 303 305
244 241 242 247 252 254 253 251 249 250 254 256 256 258 263 267 270 271 271 270 270 270 269 268 267 268 270 271 269 264 254 243 239 242 248 252 254 258 263 267 273 278 283 287 290 291 291 291 292 293 294 294 296 298 299 300 301 302 303 305 307 308
247 246 247 250 252 252 250 247 248 251 254 255 255 258 263 269 271 272 270 268 269 269 268 267 267 268 269 269 266 260 248 239 238 241 246 249 251 256 262 269 277 282 286 288 290 291 291 292 293 294 295 297 299 301 302 303 304 305 307 309 311 311
246 244 245 250 249 249 249 247 247 250 252 254 255 260 266 271 273 272 269 267 267 268 268 268 268 269 270 269 264 255 242 234 236 240 243 247 253 260 266 272 278 284 287 288 289 290 292 293 295 297 299 300 302 303 304 305 306 308 311 313 313 311
248 241 242 249 246 246 250 250 248 250 251 253 255 261 268 272 272 270 266 265 266 267 268 269 269 270 270 267 260 250 238 231 233 237 240 247 257 266 271 276 281 285 286 288 291 293 296 298 301 302 303 303 303 304 305 307 308 310 313 313 311 308
251 240 244 252 247 246 253 257 255 253 253 254 257 263 267 270 271 267 264 264 266 267 269 270 270 269 266 261 252 244 236 231 233 237 242 250 260 269 276 281 285 287 290 293 296 300 303 305 306 306 305 305 305 305 308 309 310 311 311 310 308 307
251 241 247 251 252 257 259 259 257 254 253 255 258 262 264 268 270 266 263 265 268 270 271 269 267 264 261 254 246 240 234 232 236 240 246 253 262 271 278 284 288 291 295 299 301 304 306 306 306 305 305 305 306 307 309 310 311 311 310 308 307 306
249 243 246 248 253 259 253 250 255 255 255 256 258 261 263 268 271 268 264 266 269 269 267 264 260 257 256 250 243 238 234 235 239 244 249 257 266 274 279 285 290 294 299 302 304 304 305 304 304 305 305 306 307 308 310 311 310 309 308 306 305 304
246 242 244 247 250 248 243 248 258 260 258 254 255 260 265 270 273 270 265 264 264 264 263 260 254 250 250 247 240 236 236 240 244 249 255 262 269 276 282 288 294 298 301 303 304 304 304 305 305 306 306 307 308 309 310 310 309 308 307 306 305 304
248 247 248 247 245 242 246 256 263 261 257 254 257 264 268 270 271 267 261 259 260 258 259 257 249 245 246 242 236 236 240 244 248 253 259 266 272 280 287 294 298 300 302 302 302 302 303 304 305 306 306 307 308 309 309 308 307 307 306 305 304 304
246 248 247 242 240 244 252 260 261 257 254 256 263 264 262 264 266 261 257 258 257 253 251 249 243 241 240 237 236 240 243 244 248 256 264 272 279 287 293 297 299 299 299 299 300 301 302 303 304 305 306 307 308 307 307 306 306 306 306 305 305 305
241 243 241 239 241 248 255 259 257 255 254 256 259 254 251 257 262 260 259 257 252 246 243 243 243 243 239 237 239 241 242 245 252 262 271 281 288 294 297 297 297 298 299 300 301 302 302 303 305 306 307 307 307 306 305 305 304 305 305 306 307 309
240 239 236 240 245 251 257 257 255 256 254 250 251 250 250 257 262 262 262 254 242 239 241 243 246 247 242 238 238 240 244 251 262 274 283 290 294 296 297 298 299 301 302 303 304 304 304 305 306 306 306 306 305 304 303 303 303 304 305 307 309 311
239 237 237 244 250 256 257 255 255 258 255 248 243 244 251 259 262 264 259 245 236 236 242 246 245 242 238 236 238 242 250 262 275 285 291 294 295 296 298 300 303 304 305 306 306 307 307 307 307 306 306 305 304 303 302 302 302 303 305 306 308 309
241 242 244 248 252 253 247 247 252 255 253 246 237 237 249 261 262 258 243 232 235 240 245 249 244 236 234 234 240 248 260 273 282 287 291 293 296 299 302 304 306 307 307 308 308 309 309 309 308 307 307 306 304 303 303 303 304 306 307 308 308 309
245 247 249 249 250 247 238 239 246 248 248 247 241 241 254 262 258 245 229 228 237 243 246 245 238 231 230 233 241 253 264 275 282 288 293 296 300 303 305 307 308 308 308 309 309 310 309 309 309 308 308 307 307 307 308 309 309 310 310 310 310 312
247 247 247 247 249 246 239 239 241 244 248 251 250 250 256 260 251 236 229 232 238 241 240 235 229 227 228 234 244 254 265 276 285 291 297 301 304 306 308 309 309 310 310 310 311 311 310 310 310 310 310 310 311 311 312 312 311 310 310 311 312 313
242 240 241 243 245 243 241 241 241 244 249 252 253 253 254 252 245 237 236 239 241 239 232 225 223 225 230 237 246 256 268 280 290 296 301 304 306 308 310 310 311 312 313 314 314 314 314 313 313 312 312 312 312 313 312 311 310 310 310 312 313 315
237 236 239 243 245 243 241 242 243 245 249 251 252 250 246 244 243 242 244 243 239 230 223 220 222 228 233 240 249 260 274 286 294 299 302 306 308 310 312 312 314 316 317 317 317 317 316 315 313 313 312 313 313 312 311 310 310 310 312 314 316 318
235 235 239 243 245 244 240 238 240 243 245 246 245 241 240 242 242 243 243 237 226 217 216 220 225 231 235 242 253 267 280 290 296 300 304 307 309 312 313 315 317 319 320 320 320 319 317 315 314 313 313 313 313 312 311 310 310 311 313 315 317 319
239 238 244 244 241 239 234 229 232 238 240 239 239 239 239 239 240 240 234 221 212 213 218 224 229 233 237 245 258 270 282 291 297 301 304 308 311 313 315 317 320 322 323 322 322 320 319 317 316 315 315 314 312 311 310 310 310 312 314 316 318 320
242 241 247 245 240 234 226 221 227 236 237 235 238 240 238 238 238 232 221 212 213 219 224 229 231 232 238 248 260 271 283 292 296 301 305 309 313 315 317 319 321 323 324 324 323 322 321 319 318 317 315 313 312 311 310 310 311 313 315 318 320 321
Height
5876 5875 5875 5875 5874 5873 5872 5871 5870 5869 5869 5868 5868 5869 5869 5869 5869 5870 5870 5870 5870 5870 5870 5870 5869 5869 5868 5867 5867 5867 5867 5866 5866 5866 5865 5864 5863 5862 5861 5861 5860 5860 5859 5858 5858 5858 5857 5857 5856 5856 5855 5854 5853 5853 5852 5851 5851 5850 5849 5848 5847 5846
5874 5874 5874 5874 5873 5872 5871 5870 5869 5868 5867 5866 5867 5867 5867 5867 5867 5868 5868 5868 5869 5869 5869 5869 5868 5868 5867 5866 5865 5865 5865 5865 5865 5864 5864 5863 5862 5861 5860 5860 5859 5859 5858 5858 5857 5857 5856 5856 5855 5855 5854 5853 5853 5852 5851 5850 5849 5849 5848 5847 5846 5845
5871 5872 5872 5872 5871 5871 5870 5869 5868 5867 5866 5865 5865 5866 5866 5866 5866 5866 5867 5867 5867 5868 5868 5867 5867 5867 5866 5865 5864 5864 5864 5863 5863 5863 5863 5862 5861 5860 5859 5859 5858 5858 5857 5857 5857 5856 5856 5855 5855 5854 5853 5853 5852 5851 5850 5850 5849 5847 5847 5846 5845 5844
5869 5870 5870 5870 5869 5868 5868 5867 5866 5865 5864 5864 5864 5864 5864 5864 5864 5864 5865 5865 5866 5866 5866 5866 5866 5866 5866 5865 5864 5863 5862 5862 5862 5861 5861 5861 5861 5860 5858 5858 5857 5857 5856 5856 5856 5855 5855 5855 5854 5853 5853 5852 5851 5850 5850 5849 5848 5846 5845 5844 5844 5843
5867 5868 5868 5867 5867 5866 5865 5864 5863 5863 5862 5862 5863 5863 5863 5863 5863 5863 5863 5863 5864 5865 5864 5864 5864 5865 5864 5864 5863 5862 5861 5861 5860 5860 5859 5860 5860 5859 5858 5857 5856 5856 5855 5855 5855 5855 5854 5854 5853 5853 5852 5851 5850 5849 5848 5847 5846 5845 5844 5843 5843 5841
5865 5866 5866 5865 5864 5863 5862 5861 5861 5860 5860 5860 5861 5861 5861 5861 5861 5861 5861 5862 5862 5862 5862 5862 5863 5863 5863 5862 5861 5861 5860 5859 5859 5859 5858 5858 5859 5858 5857 5856 5855 5855 5854 5854 5854 5854 5853 5853 5853 5852 5851 5850 5849 5848 5847 5846 5845 5844 5843 5842 5841 5840
5863 5863 5863 5862 5861 5861 5860 5859 5858 5858 5858 5859 5859 5859 5859 5860 5860 5860 5860 5860 5860 5860 5861 5861 5861 5861 5860 5860 5859 5859 5859 5858 5858 5858 5858 5857 5857 5857 5857 5856 5855 5854 5853 5853 5853 5852 5852 5852 5852 5851 5850 5849 5848 5847 5846 5845 5843 5842 5841 5840 5839 5838
5861 5861 5860 5860 5859 5859 5858 5857 5856 5856 5856 5857 5857 5858 5858 5858 5858 5858 5858 5858 5858 5858 5859 5859 5859 5858 5858 5858 5857 5857 5857 5857 5857 5856 5856 5856 5856 5856 5856 5855 5854 5853 5853 5852 5852 5851 5851 5851 5850 5850 5849 5848 5847 5846 5845 5844 5842 5841 5839 5838 5838 5837
5859 5858 5858 5857 5857 5857 5856 5856 5855 5855 5855 5855 5855 5855 5856 5856 5856 5856 5856 5856 5856 5856 5856 5857 5856 5856 5856 5856 5856 5855 5855 5856 5855 5855 5854 5854 5854 5854 5854 5853 5853 5853 5852 5852 5851 5851 5850 5849 5849 5848 5847 5847 5846 5845 5844 5842 5841 5839 5838 5837 5836 5835
5857 5856 5856 5855 5855 5855 5855 5854 5854 5853 5853 5853 5853 5853 5854 5854 5854 5854 5854 5854 5854 5854 5854 5854 5854 5854 5854 5853 5853 5853 5853 5853 5853 5853 5852 5852 5852 5851 5851 5851 5851 5851 5851 5851 5851 5850 5849 5848 5847 5846 5846 5845 5844 5843 5842 5840 5839 5837 5836 5835 5833 5832
5855 5854 5853 5853 5853 5853 5853 5852 5852 5852 5852 5852 5852 5852 5852 5852 5852 5852 5852 5852 5852 5852 5852 5852 5852 5852 5851 5851 5851 5851 5851 5851 5851 5851 5850 5850 5850 5850 5849 5849 5849 5849 5849 5849 5849 5849 5848 5846 5845 5845 5844 5843 5842 5841 5840 5838 5837 5835 5834 5833 5831 5830
5852 5851 5850 5850 5850 5850 5850 5850 5850 5850 5850 5850 5850 5850 5850 5850 5849 5849 5849 5850 5850 5850 5850 5850 5850 5850 5849 5849 5848 5848 5848 5848 5849 5848 5848 5848 5848 5848 5848 5847 5847 5847 5847 5847 5847 5847 5846 5845 5844 5843 5842 5841 5840 5839 5838 5836 5835 5833 5832 5830 5829 5827
5849 5848 5847 5847 5847 5848 5848 5848 5848 5848 5848 5848 5848 5848 5848 5847 5846 5846 5847 5847 5847 5848 5848 5848 5848 5848 5847 5847 5846 5846 5846 5846 5846 5846 5846 5846 5846 5846 5846 5846 5845 5845 5845 5845 5845 5845 5844 5843 5842 5841 5840 5839 5838 5837 5836 5834 5833 5831 5830 5828 5826 5825
5845 5845 5844 5844 5844 5845 5845 5846 5846 5846 5846 5846 5846 5846 5846 5845 5844 5844 5844 5845 5845 5845 5845 5845 5845 5845 5845 5845 5845 5844 5844 5844 5844 5845 5845 5845 5845 5845 5844 5844 5844 5843 5843 5843 5843 5843 5842 5841 5839 5839 5838 5837 5836 5835 5833 5832 5830 5829 5827 5825 5824 5822
5842 5841 5841 5841 5842 5842 5843 5843 5844 5844 5844 5845 5845 5844 5844 5843 5842 5842 5842 5843 5843 5843 5843 5843 5843 5843 5843 5843 5843 5843 5843 5843 5843 5843 5843 5843 5843 5843 5843 5842 5842 5841 5841 5841 5841 5840 5839 5838 5837 5836 5835 5834 5834 5832 5831 5829 5828 5826 5824 5823 5821 5820
5838 5838 5838 5838 5839 5840 5841 5841 5842 5842 5843 5843 5843 5842 5841 5841 5840 5840 5840 5841 5841 5841 5841 5841 5841 5841 5841 5841 5841 5841 5841 5841 5841 5841 5841 5841 5841 5841 5841 5840 5840 5839 5839 5839 5839 5838 5837 5836 5835 5834 5833 5832 5831 5830 5828 5827 5825 5824 5822 5821 5819 5817
5835 5835 5835 5836 5837 5838 5839 5839 5840 5840 5841 5841 5841 5840 5839 5839 5839 5839 5839 5839 5839 5839 5839 5839 5839 5838 5838 5839 5839 5840 5840 5839 5839 5840 5840 5840 5840 5839 5839 5838 5838 5837 5837 5837 5837 5836 5836 5835 5833 5832 5831 5830 5829 5827 5826 5825 5823 5821 5819 5818 5816 5814
5832 5832 5833 5834 5834 5835 5836 5837 5837 5838 5838 5838 5838 5838 5838 5838 5837 5837 5837 5837 5837 5837 5837 5837 5837 5836 5836 5837 5837 5838 5838 5838 5838 5838 5838 5838 5838 5837 5837 5836 5836 5835 5835 5835 5835 5834 5833 5833 5832 5830 5829 5827 5826 5825 5823 5822 5820 5818 5816 5814 5812 5810
5829 5829 5830 5831 5832 5833 5834 5834 5835 5835 5835 5835 5835 5835 5836 5835 5835 5835 5835 5835 5835 5835 5836 5836 5835 5835 5835 5835 5835 5836 5836 5836 5836 5836 5836 5836 5836 5836 5835 5835 5834 5834 5833 5833 5833 5832 5831 5831 5829 5828 5826 5825 5823 5821 5820 5818 5816 5815 5813 5811 5809 5807
5825 5827 5828 5829 5829 5831 5832 5833 5833 5833 5832 5832 5833 5833 5833 5833 5833 5833 5833 5833 5834 5834 5834 5834 5834 5834 5833 5833 5833 5834 5834 5834 5834 5834 5834 5834 5834 5834 5834 5833 5833 5832 5831 5831 5830 5829 5829 5828 5826 5825 5823 5822 5820 5819 5817 5815 5813 5812 5810 5808 5806 5804
5825 5827 5828 5828 5828 5829 5830 5831 5831 5831 5830 5830 5830 5831 5831 5831 5831 5831 5831 5831 5832 5832 5832 5832 5832 5832 5832 5831 5832 5832 5832 5832 5832 5833 5833 5833 5833 5832 5832 5832 5831 5830 5829 5828 5828 5827 5826 5824 5823 5822 5820 5819 5817 5815 5814 5812 5811 5809 5808 5806 5804 5802
5825 5827 5827 5827 5828 5828 5829 5828 5828 5828 5827 5828 5828 5828 5829 5829 5829 5829 5829 5830 5830 5830 5830 5830 5831 5830 5830 5830 5830 5830 5830 5831 5831 5831 5831 5832 5831 5831 5831 5830 5829 5828 5827 5826 5825 5824 5823 5822 5821 5819 5818 5816 5814 5812 5811 5810 5808 5806 5805 5803 5801 5799
5822 5824 5824 5825 5826 5827 5827 5826 5825 5825 5825 5826 5826 5826 5827 5827 5827 5827 5827 5828 5828 5828 5828 5829 5829 5829 5829 5829 5829 5829 5829 5829 5830 5830 5830 5830 5830 5830 5829 5829 5828 5827 5826 5824 5823 5822 5821 5820 5818 5817 5815 5813 5811 5809 5808 5807 5805 5803 5802 5800 5798 5796
5820 5821 5822 5824 5824 5825 5824 5823 5823 5823 5823 5824 5824 5824 5824 5825 5825 5825 5826 5826 5827 5827 5827 5827 5827 5827 5827 5827 5827 5827 5828 5828 5829 5829 5829 5829 5829 5829 5828 5828 5827 5826 5824 5823 5821 5820 5818 5817 5815 5814 5812 5810 5808 5806 5804 5803 5802 5800 5798 5796 5794 5792
5819 5819 5820 5822 5822 5822 5821 5821 5821 5821 5821 5821 5822 5822 5822 5822 5823 5823 5824 5825 5825 5825 5825 5825 5825 5826 5826 5826 5826 5826 5827 5827 5827 5827 5828 5828 5828 5827 5827 5826 5825 5824 5823 5822 5820 5818 5817 5815 5813 5811 5809 5807 5805 5803 5801 5799 5798 5797 5795 5793 5791 5789
5818 5817 5818 5819 5819 5819 5819 5819 5819 5818 5819 5819 5820 5820 5820 5820 5821 5821 5822 5823 5823 5823 5824 5824 5824 5824 5824 5824 5825 5825 5825 5826 5826 5826 5826 5826 5826 5826 5825 5824 5824 5822 5821 5820 5819 5817 5815 5813 5811 5810 5807 5805 5803 5801 5798 5796 5794 5793 5791 5789 5787 5785
5814 5814 5815 5816 5816 5815 5816 5816 5816 5815 5816 5817 5818 5818 5818 5818 5819 5819 5820 5821 5821 5822 5822 5822 5822 5822 5823 5823 5823 5824 5825 5825 5825 5825 5825 5825 5824 5824 5823 5822 5821 5821 5820 5818 5817 5815 5813 5811 5809 5807 5805 5803 5800 5798 5796 5793 5791 5789 5787 5785 5784 5782
5812 5812 5813 5813 5812 5813 5813 5813 5813 5812 5813 5815 5816 5816 5816 5817 5817 5817 5818 5819 5819 5820 5820 5821 5821 5821 5821 5822 5822 5823 5823 5824 5824 5824 5824 5823 5822 5822 5821 5820 5819 5818 5817 5816 5814 5813 5811 5809 5807 5805 5803 5801 5798 5796 5794 5791 5788 5786 5783 5781 5779 5777
5810 5810 5810 5810 5810 5811 5812 5811 5811 5811 5812 5813 5813 5814 5814 5815 5815 5815 5816 5816 5817 5818 5819 5819 5819 5820 5820 5821 5821 5822 5822 5822 5822 5822 5822 5821 5820 5820 5819 5818 5817 5816 5814 5813 5811 5810 5808 5806 5804 5802 5800 5798 5796 5794 5791 5789 5786 5784 5781 5778 5776 5774
5807 5808 5808 5808 5808 5809 5809 5808 5809 5810 5810 5810 5810 5811 5813 5814 5813 5813 5813 5814 5815 5816 5817 5818 5818 5819 5819 5819 5820 5820 5821 5821 5821 5820 5820 5819 5818 5818 5817 5816 5814 5813 5812 5810 5808 5807 5805 5803 5801 5799 5797 5795 5793 5791 5789 5786 5784 5781 5778 5776 5773 5771
5805 5806 5806 5806 5805 5806 5806 5806 5807 5809 5809 5809 5809 5809 5811 5812 5811 5811 5812 5813 5814 5815 5816 5816 5817 5817 5817 5818 5819 5819 5819 5819 5819 5819 5818 5817 5816 5815 5814 5813 5812 5810 5809 5807 5805 5804 5802 5800 5798 5796 5794 5792 5790 5788 5786 5783 5780 5778 5775 5773 5770 5767
5803 5804 5804 5804 5804 5804 5805 5805 5806 5806 5807 5807 5808 5808 5809 5810 5810 5810 5811 5811 5812 5813 5814 5815 5815 5816 5816 5817 5817 5817 5818 5817 5817 5816 5816 5815 5814 5813 5812 5811 5809 5808 5806 5804 5802 5800 5799 5797 5795 5793 5791 5789 5787 5785 5782 5780 5777 5775 5773 5770 5768 5765
5801 5801 5801 5801 5802 5802 5803 5804 5804 5804 5805 5805 5806 5806 5807 5808 5808 5809 5809 5810 5810 5811 5812 5813 5814 5815 5815 5815 5816 5816 5816 5815 5815 5814 5814 5813 5812 5811 5810 5808 5807 5805 5803 5801 5799 5797 5795 5793 5792 5790 5788 5786 5784 5782 5779 5777 5775 5773 5771 5768 5765 5762
5799 5799 5799 5799 5799 5800 5801 5802 5802 5803 5803 5803 5804 5805 5806 5806 5807 5807 5808 5808 5809 5810 5811 5812 5813 5813 5814 5814 5814 5814 5814 5813 5813 5812 5812 5811 5810 5809 5808 5806 5804 5802 5800 5798 5796 5794 5792 5790 5789 5787 5785 5783 5781 5779 5777 5775 5773 5771 5768 5766 5763 5759
5797 5797 5797 5797 5797 5797 5798 5799 5800 5801 5801 5801 5803 5804 5804 5805 5805 5806 5806 5806 5807 5808 5809 5810 5811 5812 5812 5812 5812 5812 5812 5811 5811 5811 5810 5809 5808 5807 5805 5804 5802 5800 5797 5795 5793 5791 5789 5788 5786 5784 5782 5780 5778 5776 5774 5772 5770 5768 5766 5763 5760 5757
5795 5796 5796 5795 5795 5796 5796 5797 5798 5799 5799 5800 5801 5802 5803 5803 5803 5804 5804 5805 5806 5807 5808 5809 5809 5810 5810 5810 5810 5810 5810 5810 5809 5809 5808 5807 5806 5804 5803 5801 5799 5797 5795 5793 5790 5789 5787 5785 5783 5781 5779 5777 5775 5773 5771 5769 5767 5765 5763 5760 5757 5754
5792 5794 5793 5793 5793 5794 5794 5796 5797 5798 5798 5798 5799 5800 5801 5801 5801 5802 5802 5803 5804 5805 5806 5807 5808 5808 5808 5808 5808 5808 5808 5808 5807 5806 5806 5805 5803 5802 5800 5798 5796 5794 5792 5790 5788 5786 5784 5782 5780 5777 5775 5774 5772 5770 5768 5767 5765 5762 5760 5757 5754 5750